Location: Piotrkow Trybunalski
(51.4000°N, 19.6830°E)
Time: 04:59:28
(UTC+02:00)

A-11 Canister half - Pass Details

Date: 30 January 2023
Orbit: 1526 x 1682 km, 47.3° (Epoch: 25 March)

Event Time Altitude Azimuth Distance (km) Brightness Sun altitude
Rises 11:27:35 0° 281° (W) 4,712 11.4 20.7°
Reaches altitude 10° 11:30:41 10° 277° (W) 3,743 11.0 20.7°
Maximum altitude 11:39:48 54° 204° (SSW) 1,867 10.5 20.9°
Drops below altitude 10° 11:49:12 10° 130° (SE) 3,853 11.8 20.9°
Sets 11:52:27 0° 126° (SE) 4,858 12.1 20.9°
